Погода в Рощинском

Россия / Самарская область     53°03′04″N   50°29′42″E
темп.,
°C
ветер,
м/с
пор.,
м/с
влажн.,
%
обл.,
%
осадки,
мм/ч
давл.,
гПа
погр.,
м
18 апреля, вс
вс1801:00+10всв49684 0.0 1018230
04:00+8св410721 0.0 1018213
07:00+8всв4107196 0.0 1018281
10:00+13всв575295 0.1 1018580
13:00+16всв674496 0.0 10171072
16:00+17всв674264 0.0 10171318
19:00+14св6114887 0.0 1018434
22:00+10всв6135499 0.0 1019407
19 апреля, пн
пн1901:00+8всв7137196 0.0 1020465
04:00+6всв6137425 0.0 1021437
07:00+5всв71278100 0.0 1021489
10:00+9в7962100 0.0 1022885
13:00+11в8853100 0.0 10221395
16:00+10в7958100 0.0 10221443
19:00+7в71059100 0.0 10251117
22:00+5вюв6116699 0.1 1026859
20 апреля, вт
вт2001:00+6вюв51159100 0.0 1027686
04:00+4в71253100 0.0 1028676
07:00+2в713545 0.0 1030656
10:00+5вюв910410 0.0 1031986
13:00+8вюв911330 0.0 10291304
16:00+10вюв8102977 0.0 10291499
19:00+8вюв6113892 0.0 1029596
22:00+5вюв71543100 0.0 1029667
21 апреля, ср
ср2101:00+4юв7154651 0.0 1029690
04:00+3юв81650100 0.0 1029674
07:00+2юв81651100 0.0 1029670
10:00+6юв91439100 0.0 1028806
13:00+8ююв91235100 0.0 10281091
16:00+11ююв81337100 0.0 10271261
19:00+9ююв61244100 0.0 1028869
22:00+7ю51057100 0.2 1029822
22 апреля, чт
чт2201:00+6ююв61268100 0.6 1029982
04:00+5ююв61276100 1.5 1030837
07:00+4ююв71290100 1.6 1030820
10:00+5ююв61189100 3.8 1030585
13:00+5ююв71182100 0.4 1031624
16:00+5ююв61180100 0.8 1031603
19:00+4ююв51092100 1.5 1032518
22:00+5ююв5894100 2.2 1032624